Location: Colorado Springs
(38.8340°N, 104.8210°W)
Time: 01:14:46
(UTC-07:00)

Tiangong 1 - Pass Details

Date: 14 October 2017
Orbit: 275 x 302 km, 42.8° (Epoch: 14 December)

Event Time Altitude Azimuth Distance (km) Brightness Sun altitude
Rises 19:22:44 0° 290° (WNW) 2,088 6.2 -12.6°
Reaches altitude 10° 19:24:46 10° 291° (WNW) 1,240 4.8 -13.0°
Maximum altitude 19:27:33 83° 21° (NNE) 324 0.6 -13.6°
Enters shadow 19:28:34 34° 105° (ESE) 547 1.3 -13.8°
